{"data":{"norad_id":65164,"epoch":"2026-09-21T21:26:05.189568Z","epoch_age_seconds":44747,"freshness":"FRESH","line1":"1 65164U 25174A   26264.89311562  .00000050  00000+0  83515-4 0  9996","line2":"2 65164  86.4992 219.3612 0002210  76.1917 283.9463 13.24400304 53590","mean_motion":13.24400304,"eccentricity":0.000221,"inclination_deg":86.4992,"raan_deg":219.3612,"arg_perigee_deg":76.1917,"mean_anomaly_deg":283.9463,"bstar":8.3515e-5,"rev_number":5359,"period_min":108.7284558642,"perigee_km":1166.2913284102,"apogee_km":1169.6267028491,"semimajor_km":7546.0960156297,"source":"CELESTRAK","updated_at":"2026-09-22T09:00:30.162559Z"}}